When you browse on this site, cookies collect data to enhance your experience and personalize the content and advertising you see.
Visit our Privacy Policy to learn more. By continuing to use the site, you agree to this use of cookies and data.
  • In Czech Republic
  • List of Countries
  • For 7 days
  • Water Temperature
  • Satellite Maps
  • Weather Map
  • Weather Widgets
  • user-avatar
    Login

    Hourly Weather Ames

    Today, 21 January, Monday

    Time Temperature Precipitation Wind Pressure Humidity
    00:00 +8°C° 0 mm 1 mps 753 mmHg 98%
    01:00 +8°C° 0 mm 1 mps 753 mmHg 98%
    02:00 +7°C° 0 mm 1 mps 753 mmHg 98%
    03:00 +7°C° 0 mm 1 mps 753 mmHg 98%
    04:00 +7°C° 0 mm 1 mps 753 mmHg 99%
    05:00 +6°C° 0 mm 1 mps 753 mmHg 99%
    06:00 +5°C° 0 mm 0 mps 753 mmHg 98%
    07:00 +6°C° 0 mm 0 mps 753 mmHg 98%
    08:00 +6°C° 0 mm 0 mps 753 mmHg 98%
    09:00 +7°C° 0 mm 0 mps 753 mmHg 93%
    10:00 +10°C° 0 mm 1 mps 754 mmHg 89%
    11:00 +11°C° 0 mm 1 mps 754 mmHg 84%
    12:00 +11°C° 0.1 mm 1 mps 754 mmHg 80%
    13:00 +12°C° 0.1 mm 1 mps 753 mmHg 76%
    14:00 +12°C° 0.1 mm 1 mps 753 mmHg 72%
    15:00 +11°C° 0 mm 1 mps 753 mmHg 80%
    16:00 +9°C° 0 mm 1 mps 753 mmHg 87%
    17:00 +6°C° 0 mm 0 mps 753 mmHg 95%
    18:00 +6°C° 0 mm 0 mps 753 mmHg 96%
    19:00 +6°C° 0 mm 0 mps 753 mmHg 96%
    20:00 +6°C° 0 mm 0 mps 753 mmHg 96%
    21:00 +6°C° 0 mm 0 mps 753 mmHg 96%
    22:00 +6°C° 0 mm 0 mps 753 mmHg 96%
    23:00 +6°C° 0 mm 0 mps 753 mmHg 95%

    Tomorrow, 22 January, Tuesday

    Time Temperature Precipitation Wind Pressure Humidity
    00:00 +6°C° 0 mm 0 mps 752 mmHg 95%
    01:00 +7°C° 0 mm 0 mps 752 mmHg 95%
    02:00 +8°C° 0 mm 1 mps 751 mmHg 95%
    03:00 +8°C° 0.2 mm 1 mps 751 mmHg 95%
    04:00 +8°C° 0.2 mm 1 mps 750 mmHg 96%
    05:00 +7°C° 0.2 mm 2 mps 750 mmHg 96%
    06:00 +8°C° 1 mm 2 mps 750 mmHg 96%
    07:00 +8°C° 1 mm 2 mps 750 mmHg 96%
    08:00 +9°C° 1 mm 2 mps 750 mmHg 97%
    09:00 +9°C° 0.1 mm 2 mps 750 mmHg 92%
    10:00 +9°C° 0.1 mm 2 mps 751 mmHg 88%
    11:00 +9°C° 0.1 mm 3 mps 751 mmHg 83%
    12:00 +9°C° 0.1 mm 3 mps 750 mmHg 84%
    13:00 +9°C° 0.1 mm 3 mps 750 mmHg 84%
    14:00 +9°C° 0.1 mm 3 mps 750 mmHg 84%
    15:00 +9°C° 0.2 mm 2 mps 750 mmHg 87%
    16:00 +8°C° 0.2 mm 2 mps 750 mmHg 91%
    17:00 +8°C° 0.2 mm 2 mps 750 mmHg 94%
    18:00 +8°C° 0.1 mm 2 mps 750 mmHg 94%
    19:00 +8°C° 0.1 mm 2 mps 750 mmHg 94%
    20:00 +8°C° 0.1 mm 2 mps 750 mmHg 95%
    21:00 +8°C° 0.2 mm 2 mps 750 mmHg 95%
    22:00 +8°C° 0.2 mm 2 mps 750 mmHg 95%
    23:00 +8°C° 0.2 mm 2 mps 750 mmHg 95%

    Day after tomorrow, 23 January, Wednesday

    Time Temperature Precipitation Wind Pressure Humidity
    00:00 +9°C° 0.1 mm 2 mps 750 mmHg 95%
    01:00 +9°C° 0.1 mm 2 mps 749 mmHg 95%
    02:00 +9°C° 0.1 mm 3 mps 749 mmHg 94%
    03:00 +9°C° 0.2 mm 3 mps 749 mmHg 94%
    04:00 +9°C° 0.2 mm 3 mps 748 mmHg 94%
    05:00 +10°C° 0.2 mm 3 mps 748 mmHg 94%
    06:00 +10°C° 0.2 mm 3 mps 748 mmHg 95%
    07:00 +10°C° 0.2 mm 3 mps 749 mmHg 95%
    08:00 +10°C° 0.2 mm 3 mps 749 mmHg 95%
    09:00 +10°C° 0.1 mm 3 mps 749 mmHg 94%
    10:00 +11°C° 0.1 mm 3 mps 749 mmHg 93%
    11:00 +11°C° 0.1 mm 3 mps 749 mmHg 92%
    12:00 +11°C° 0.2 mm 3 mps 749 mmHg 93%
    13:00 +12°C° 0.2 mm 2 mps 749 mmHg 94%
    14:00 +12°C° 0.2 mm 2 mps 749 mmHg 95%
    15:00 +12°C° 0.6 mm 2 mps 748 mmHg 96%
    16:00 +12°C° 0.6 mm 2 mps 748 mmHg 97%
    17:00 +12°C° 0.6 mm 2 mps 748 mmHg 98%
    18:00 +12°C° 0.2 mm 2 mps 749 mmHg 98%
    19:00 +12°C° 0.2 mm 2 mps 749 mmHg 98%
    20:00 +12°C° 0.2 mm 2 mps 749 mmHg 98%
    21:00 +12°C° 0.3 mm 2 mps 749 mmHg 98%
    22:00 +12°C° 0.3 mm 2 mps 749 mmHg 97%
    23:00 +11°C° 0.3 mm 3 mps 749 mmHg 97%

    24 January, Thursday

    Time Temperature Precipitation Wind Pressure Humidity
    00:00 +12°C° 0.1 mm 2 mps 749 mmHg 97%
    01:00 +12°C° 0.1 mm 2 mps 749 mmHg 98%
    02:00 +12°C° 0.1 mm 2 mps 749 mmHg 98%
    03:00 +12°C° 0.1 mm 2 mps 749 mmHg 98%
    04:00 +12°C° 0.1 mm 2 mps 749 mmHg 98%
    05:00 +12°C° 0.1 mm 2 mps 749 mmHg 98%
    06:00 +12°C° 0.1 mm 2 mps 750 mmHg 97%
    07:00 +12°C° 0.1 mm 2 mps 750 mmHg 97%
    08:00 +12°C° 0.1 mm 2 mps 751 mmHg 97%
    09:00 +13°C° 0.1 mm 2 mps 751 mmHg 96%
    10:00 +13°C° 0.1 mm 2 mps 751 mmHg 96%
    11:00 +13°C° 0.1 mm 2 mps 751 mmHg 95%
    12:00 +13°C° 0.1 mm 2 mps 751 mmHg 95%
    13:00 +13°C° 0.1 mm 2 mps 751 mmHg 96%
    14:00 +12°C° 0.1 mm 2 mps 751 mmHg 96%
    15:00 +12°C° 0.1 mm 2 mps 751 mmHg 96%
    16:00 +12°C° 0.1 mm 2 mps 752 mmHg 97%
    17:00 +12°C° 0.1 mm 2 mps 752 mmHg 97%
    18:00 +12°C° 0.1 mm 2 mps 752 mmHg 97%
    19:00 +12°C° 0.1 mm 2 mps 753 mmHg 97%
    20:00 +12°C° 0.1 mm 2 mps 753 mmHg 97%
    21:00 +11°C° 0 mm 1 mps 753 mmHg 97%
    22:00 +11°C° 0 mm 1 mps 753 mmHg 98%
    23:00 +10°C° 0 mm 1 mps 753 mmHg 98%

    25 January, Friday

    Time Temperature Precipitation Wind Pressure Humidity
    00:00 +9°C° 0 mm 1 mps 753 mmHg 98%
    01:00 +9°C° 0 mm 1 mps 753 mmHg 98%
    02:00 +8°C° 0 mm 1 mps 753 mmHg 99%
    03:00 +8°C° 0 mm 1 mps 753 mmHg 98%
    04:00 +8°C° 0 mm 1 mps 753 mmHg 98%
    05:00 +8°C° 0 mm 1 mps 753 mmHg 98%
    06:00 +8°C° 0 mm 1 mps 753 mmHg 98%
    07:00 +8°C° 0 mm 1 mps 754 mmHg 98%
    08:00 +8°C° 0 mm 1 mps 754 mmHg 97%
    09:00 +10°C° 0 mm 1 mps 754 mmHg 93%
    10:00 +11°C° 0 mm 1 mps 754 mmHg 89%
    11:00 +12°C° 0 mm 2 mps 754 mmHg 85%
    12:00 +13°C° 0 mm 2 mps 753 mmHg 81%
    13:00 +13°C° 0 mm 2 mps 753 mmHg 76%
    14:00 +14°C° 0 mm 2 mps 752 mmHg 72%
    15:00 +12°C° 0 mm 1 mps 752 mmHg 79%
    16:00 +11°C° 0 mm 1 mps 752 mmHg 86%
    17:00 +9°C° 0 mm 1 mps 752 mmHg 93%
    18:00 +9°C° 0 mm 1 mps 752 mmHg 95%
    19:00 +8°C° 0 mm 1 mps 752 mmHg 96%
    20:00 +7°C° 0 mm 1 mps 752 mmHg 98%
    21:00 +7°C° 0 mm 1 mps 752 mmHg 98%
    22:00 +6°C° 0 mm 1 mps 752 mmHg 98%
    23:00 +6°C° 0 mm 1 mps 752 mmHg 98%

    26 January, Saturday

    Time Temperature Precipitation Wind Pressure Humidity
    00:00 +5°C° 0 mm 0 mps 752 mmHg 98%
    01:00 +5°C° 0 mm 0 mps 751 mmHg 98%
    02:00 +4°C° 0 mm 0 mps 751 mmHg 98%
    03:00 +5°C° 0 mm 0 mps 751 mmHg 98%
    04:00 +5°C° 0 mm 0 mps 751 mmHg 97%
    05:00 +5°C° 0 mm 0 mps 750 mmHg 97%
    06:00 +7°C° 0 mm 1 mps 751 mmHg 96%
    07:00 +7°C° 0 mm 1 mps 751 mmHg 95%
    08:00 +8°C° 0 mm 1 mps 751 mmHg 94%
    09:00 +8°C° 0 mm 2 mps 750 mmHg 89%
    10:00 +9°C° 0 mm 2 mps 750 mmHg 84%
    11:00 +10°C° 0 mm 3 mps 750 mmHg 79%
    12:00 +10°C° 0.5 mm 2 mps 750 mmHg 85%
    13:00 +9°C° 0.5 mm 2 mps 750 mmHg 90%
    14:00 +9°C° 0.5 mm 2 mps 749 mmHg 96%
    15:00 +9°C° 0.1 mm 1 mps 750 mmHg 96%
    16:00 +9°C° 0.1 mm 1 mps 750 mmHg 96%
    17:00 +8°C° 0.1 mm 1 mps 750 mmHg 97%
    18:00 +8°C° 0 mm 1 mps 750 mmHg 97%
    19:00 +7°C° 0 mm 1 mps 751 mmHg 97%
    20:00 +7°C° 0 mm 1 mps 751 mmHg 97%
    21:00 +7°C° 0.1 mm 1 mps 751 mmHg 97%
    22:00 +6°C° 0.1 mm 1 mps 752 mmHg 97%
    23:00 +6°C° 0.1 mm 1 mps 752 mmHg 97%
    Show more